• In Netherlands
  • List of Countries
  • For 7 days
  • Water Temperature
  • Satellite Maps
  • Weather Map
  • Weather Widgets
  • user-avatar
    Login

    Hourly Weather Yulara

    Today, 23 March, Thursday

    Time Temperature Precipitation Wind Pressure Humidity
    00:00 +33°C° 0 mm 6 mps 716 mmHg 22%
    01:00 +33°C° 0 mm 6 mps 716 mmHg 24%
    02:00 +32°C° 0 mm 6 mps 716 mmHg 25%
    03:00 +30°C° 0 mm 5 mps 716 mmHg 27%
    04:00 +29°C° 0 mm 5 mps 716 mmHg 28%
    05:00 +28°C° 0 mm 4 mps 716 mmHg 30%
    06:00 +27°C° 0 mm 4 mps 716 mmHg 32%
    07:00 +29°C° 0 mm 4 mps 717 mmHg 28%
    08:00 +32°C° 0 mm 5 mps 717 mmHg 25%
    09:00 +35°C° 0 mm 5 mps 718 mmHg 20%
    10:00 +36°C° 0 mm 5 mps 718 mmHg 18%
    11:00 +38°C° 0 mm 4 mps 717 mmHg 17%
    12:00 +41°C° 0 mm 4 mps 717 mmHg 15%
    13:00 +40°C° 0 mm 3 mps 716 mmHg 15%
    14:00 +40°C° 0 mm 2 mps 716 mmHg 14%
    15:00 +40°C° 0 mm 1 mps 715 mmHg 14%
    16:00 +40°C° 0 mm 1 mps 715 mmHg 15%
    17:00 +39°C° 0 mm 2 mps 715 mmHg 16%
    18:00 +39°C° 0 mm 2 mps 715 mmHg 17%
    19:00 +37°C° 0 mm 2 mps 716 mmHg 18%
    20:00 +36°C° 0 mm 3 mps 716 mmHg 19%
    21:00 +35°C° 0 mm 3 mps 716 mmHg 20%
    22:00 +34°C° 0 mm 3 mps 716 mmHg 21%
    23:00 +34°C° 0 mm 3 mps 716 mmHg 21%

    Tomorrow, 24 March, Friday

    Time Temperature Precipitation Wind Pressure Humidity
    00:00 +33°C° 0 mm 3 mps 716 mmHg 21%
    01:00 +31°C° 0 mm 3 mps 716 mmHg 23%
    02:00 +30°C° 0 mm 3 mps 716 mmHg 24%
    03:00 +29°C° 0 mm 3 mps 716 mmHg 25%
    04:00 +29°C° 0 mm 3 mps 716 mmHg 26%
    05:00 +28°C° 0 mm 3 mps 716 mmHg 28%
    06:00 +27°C° 0 mm 3 mps 716 mmHg 29%
    07:00 +29°C° 0 mm 3 mps 716 mmHg 26%
    08:00 +31°C° 0 mm 3 mps 717 mmHg 23%
    09:00 +34°C° 0 mm 4 mps 717 mmHg 21%
    10:00 +36°C° 0 mm 4 mps 717 mmHg 18%
    11:00 +38°C° 0 mm 4 mps 716 mmHg 16%
    12:00 +41°C° 0 mm 4 mps 716 mmHg 14%
    13:00 +40°C° 0 mm 3 mps 716 mmHg 13%
    14:00 +42°C° 0 mm 3 mps 715 mmHg 13%
    15:00 +41°C° 0 mm 2 mps 714 mmHg 13%
    16:00 +40°C° 0 mm 3 mps 714 mmHg 13%
    17:00 +40°C° 0 mm 3 mps 714 mmHg 14%
    18:00 +39°C° 0 mm 3 mps 714 mmHg 15%
    19:00 +37°C° 0 mm 3 mps 715 mmHg 16%
    20:00 +36°C° 0 mm 4 mps 715 mmHg 17%
    21:00 +35°C° 0 mm 4 mps 715 mmHg 19%
    22:00 +34°C° 0 mm 4 mps 715 mmHg 20%
    23:00 +33°C° 0 mm 4 mps 715 mmHg 21%

    Day after tomorrow, 25 March, Saturday

    Time Temperature Precipitation Wind Pressure Humidity
    00:00 +32°C° 0 mm 4 mps 715 mmHg 22%
    01:00 +30°C° 0 mm 4 mps 715 mmHg 22%
    02:00 +29°C° 0 mm 4 mps 714 mmHg 23%
    03:00 +29°C° 0 mm 4 mps 714 mmHg 24%
    04:00 +28°C° 0 mm 3 mps 714 mmHg 26%
    05:00 +27°C° 0 mm 2 mps 714 mmHg 28%
    06:00 +26°C° 0 mm 1 mps 714 mmHg 30%
    07:00 +28°C° 0 mm 2 mps 715 mmHg 26%
    08:00 +30°C° 0 mm 2 mps 715 mmHg 22%
    09:00 +34°C° 0 mm 2 mps 716 mmHg 18%
    10:00 +36°C° 0 mm 2 mps 716 mmHg 17%
    11:00 +37°C° 0 mm 3 mps 715 mmHg 15%
    12:00 +39°C° 0 mm 3 mps 715 mmHg 14%
    13:00 +40°C° 0 mm 3 mps 715 mmHg 13%
    14:00 +40°C° 0 mm 3 mps 714 mmHg 13%
    15:00 +42°C° 0 mm 4 mps 713 mmHg 12%
    16:00 +40°C° 0 mm 3 mps 713 mmHg 13%
    17:00 +39°C° 0 mm 3 mps 714 mmHg 13%
    18:00 +39°C° 0 mm 3 mps 714 mmHg 14%
    19:00 +37°C° 0 mm 4 mps 714 mmHg 15%
    20:00 +35°C° 0 mm 4 mps 714 mmHg 16%
    21:00 +34°C° 0 mm 4 mps 715 mmHg 17%
    22:00 +33°C° 0 mm 4 mps 715 mmHg 17%
    23:00 +32°C° 0 mm 4 mps 715 mmHg 16%

    26 March, Sunday

    Time Temperature Precipitation Wind Pressure Humidity
    00:00 +30°C° 0 mm 4 mps 715 mmHg 15%
    01:00 +30°C° 0 mm 4 mps 714 mmHg 15%
    02:00 +29°C° 0 mm 3 mps 714 mmHg 15%
    03:00 +28°C° 0 mm 3 mps 714 mmHg 15%
    04:00 +28°C° 0 mm 3 mps 714 mmHg 17%
    05:00 +27°C° 0 mm 3 mps 714 mmHg 18%
    06:00 +26°C° 0 mm 3 mps 714 mmHg 19%
    07:00 +28°C° 0 mm 3 mps 714 mmHg 17%
    08:00 +30°C° 0 mm 3 mps 715 mmHg 16%
    09:00 +34°C° 0 mm 3 mps 715 mmHg 14%
    10:00 +36°C° 0 mm 3 mps 715 mmHg 13%
    11:00 +38°C° 0 mm 4 mps 715 mmHg 11%
    12:00 +42°C° 0 mm 4 mps 715 mmHg 10%
    13:00 +42°C° 0 mm 4 mps 714 mmHg 10%
    14:00 +43°C° 0 mm 3 mps 714 mmHg 10%
    15:00 +43°C° 0 mm 3 mps 713 mmHg 9%
    16:00 +41°C° 0 mm 2 mps 713 mmHg 11%
    17:00 +39°C° 0 mm 2 mps 713 mmHg 13%
    18:00 +37°C° 0 mm 1 mps 713 mmHg 14%
    19:00 +36°C° 0 mm 1 mps 714 mmHg 15%
    20:00 +34°C° 0 mm 1 mps 714 mmHg 16%
    21:00 +33°C° 0 mm 1 mps 715 mmHg 17%
    22:00 +32°C° 0 mm 1 mps 715 mmHg 18%
    23:00 +32°C° 0 mm 2 mps 715 mmHg 18%

    27 March, Monday

    Time Temperature Precipitation Wind Pressure Humidity
    00:00 +31°C° 0 mm 2 mps 715 mmHg 18%
    01:00 +30°C° 0 mm 2 mps 714 mmHg 20%
    02:00 +30°C° 0 mm 2 mps 714 mmHg 22%
    03:00 +29°C° 0 mm 2 mps 714 mmHg 24%
    04:00 +29°C° 0 mm 4 mps 714 mmHg 28%
    05:00 +29°C° 0 mm 7 mps 715 mmHg 32%
    06:00 +29°C° 0 mm 9 mps 715 mmHg 36%
    07:00 +29°C° 0 mm 10 mps 716 mmHg 40%
    08:00 +31°C° 0 mm 11 mps 716 mmHg 44%
    09:00 +31°C° 0 mm 12 mps 717 mmHg 47%
    10:00 +33°C° 0 mm 12 mps 717 mmHg 43%
    11:00 +34°C° 0 mm 11 mps 717 mmHg 39%
    12:00 +37°C° 0 mm 11 mps 717 mmHg 35%
    13:00 +37°C° 0 mm 11 mps 717 mmHg 32%
    14:00 +38°C° 0 mm 11 mps 716 mmHg 30%
    15:00 +38°C° 0 mm 10 mps 716 mmHg 28%
    16:00 +37°C° 0 mm 10 mps 716 mmHg 30%
    17:00 +36°C° 0 mm 10 mps 716 mmHg 31%
    18:00 +34°C° 0 mm 10 mps 717 mmHg 33%
    19:00 +32°C° 0 mm 9 mps 717 mmHg 34%
    20:00 +31°C° 0 mm 8 mps 718 mmHg 34%
    21:00 +29°C° 0 mm 8 mps 719 mmHg 35%
    22:00 +28°C° 0 mm 7 mps 719 mmHg 34%
    23:00 +27°C° 0 mm 7 mps 719 mmHg 33%

    28 March, Tuesday

    Time Temperature Precipitation Wind Pressure Humidity
    00:00 +26°C° 0 mm 6 mps 719 mmHg 32%
    01:00 +26°C° 0 mm 6 mps 718 mmHg 31%
    02:00 +24°C° 0 mm 6 mps 718 mmHg 31%
    03:00 +23°C° 0 mm 6 mps 718 mmHg 31%
    04:00 +23°C° 0 mm 6 mps 718 mmHg 32%
    05:00 +23°C° 0 mm 6 mps 718 mmHg 32%
    06:00 +23°C° 0 mm 5 mps 718 mmHg 33%
    07:00 +23°C° 0 mm 6 mps 719 mmHg 33%
    08:00 +24°C° 0 mm 6 mps 719 mmHg 32%
    09:00 +26°C° 0 mm 7 mps 719 mmHg 32%
    10:00 +28°C° 0 mm 7 mps 719 mmHg 30%
    11:00 +30°C° 0 mm 7 mps 718 mmHg 28%
    12:00 +33°C° 0 mm 7 mps 718 mmHg 26%
    13:00 +34°C° 0 mm 6 mps 717 mmHg 26%
    14:00 +35°C° 0 mm 6 mps 717 mmHg 26%
    15:00 +36°C° 0 mm 5 mps 716 mmHg 25%
    16:00 +35°C° 0 mm 5 mps 716 mmHg 26%
    17:00 +34°C° 0 mm 5 mps 716 mmHg 27%
    18:00 +34°C° 0 mm 5 mps 716 mmHg 28%
    19:00 +32°C° 0 mm 5 mps 717 mmHg 29%
    20:00 +30°C° 0 mm 5 mps 717 mmHg 31%
    21:00 +29°C° 0 mm 5 mps 718 mmHg 32%
    22:00 +28°C° 0 mm 5 mps 717 mmHg 33%
    23:00 +27°C° 0 mm 5 mps 717 mmHg 34%
    Show more